Location: Earls Croome
(52.0667°N, 2.2000°W)
Time: 08:15:49
(UTC+00:00)

COSMOS 2428 - Pass Details

Date: 17 November 2019
Orbit: 844 x 858 km, 70.9° (Epoch: 08 December)

Event Time Altitude Azimuth Distance (km) Brightness Sun altitude
Exits shadow 06:22:04 - 330° (NNW) 3,012 5.1 -10.6°
Reaches altitude 10° 06:23:27 10° 331° (NNW) 2,489 4.7 -10.4°
Maximum altitude 06:29:11 77° 57° (ENE) 882 2.9 -9.6°
Drops below altitude 10° 06:34:54 10° 144° (SE) 2,484 6.1 -8.7°
Sets 06:37:21 0° 146° (SE) 3,418 6.8 -8.4°
